Change the Weather History Date:

Wednesday, April 3, 2013

  Actual Average Record
Temperature  
Mean Temperature 34 °F -  
Max Temperature 36 °F 65 °F 93 °F (2011)
Min Temperature 32 °F 33 °F 16 °F (1975)
Degree Days  
Heating Degree Days 31    
Moisture  
Dew Point 31 °F    
Average Humidity 92    
Maximum Humidity 98    
Minimum Humidity 86    
Precipitation  
Precipitation 0.00 in - - ()
Sea Level Pressure  
Sea Level Pressure 30.19 in    
Wind  
Wind Speed 10 mph (NE)    
Max Wind Speed 16 mph    
Max Gust Speed 20 mph    
Visibility 8 miles    
Events      
Averages and records for this station are not official NWS values.
T = Trace of Precipitation, MM = Missing Value Source: NWS Daily Summary

Daily Weather History Graph

Daily Weather History Graph

Search for Another Location

Airport or City:

Trip Planner

Search our weather history database for the weather conditions in past years. The results will help you decide how hot, cold, wet, or windy it might be!

Date:

Astronomy

Apr. 03, 2013 Rise Set
Actual Time 7:25 AM CDT 8:07 PM CDT
Civil Twilight 6:59 AM CDT 8:33 PM CDT
Nautical Twilight 6:29 AM CDT 9:03 PM CDT
Astronomical Twilight 5:57 AM CDT 9:35 PM CDT
Moon 2:57 AM CDT (4/3) 1:31 PM CDT (4/3)
Length of Visible Light 13h 33m
Length of Day
12h 41m
Last Quarter, 44% of the Moon is Illuminated
Apr 3
Last Quarter
Apr 10
New
Apr 18
First Quarter
Apr 25
Full
May 2
Last Quarter

Hourly Weather History & Observations

Time (CDT) Temp. Windchill Dew Point Humidity Pressure Visibility Wind Dir Wind Speed Gust Speed Precip Events Conditions
12:15 AM 32.4 °F 25.3 °F 29.7 °F 90% 30.21 in 10.0 mi NE 8.1 mph - N/A   Overcast
12:35 AM 32.5 °F 25.5 °F 29.8 °F 90% 30.21 in 7.0 mi NNE 8.1 mph - N/A   Overcast
12:55 AM 32.5 °F 23.2 °F 30.0 °F 90% 30.19 in 7.0 mi NE 12.7 mph - N/A   Overcast
1:15 AM 32.5 °F 23.7 °F 30.2 °F 91% 30.19 in 10.0 mi NNE 11.5 mph - N/A   Overcast
1:35 AM 32.7 °F 25.0 °F 30.0 °F 90% 30.19 in 10.0 mi NNE 9.2 mph - N/A   Overcast
1:55 AM 32.9 °F 23.7 °F 29.5 °F 87% 30.17 in 10.0 mi NE 12.7 mph - N/A   Overcast
2:15 AM 33.1 °F 24.9 °F 29.8 °F 88% 30.16 in 10.0 mi NE 10.4 mph - N/A   Overcast
2:35 AM 33.1 °F 24.4 °F 30.2 °F 89% 30.16 in 10.0 mi NNE 11.5 mph - N/A   Overcast
2:55 AM 33.1 °F 23.9 °F 30.7 °F 91% 30.14 in 10.0 mi NE 12.7 mph - N/A   Overcast
3:15 AM 33.3 °F 24.1 °F 30.2 °F 89% 30.13 in 10.0 mi NE 12.7 mph - N/A   Overcast
3:35 AM 33.3 °F 24.6 °F 30.9 °F 91% 30.13 in 10.0 mi NE 11.5 mph - N/A   Overcast
3:55 AM 33.3 °F 26.4 °F 30.9 °F 91% 30.17 in 10.0 mi North 8.1 mph - N/A   Overcast
4:15 AM 33.3 °F 25.7 °F 31.1 °F 92% 30.17 in 10.0 mi North 9.2 mph - N/A   Overcast
4:35 AM 33.4 °F 25.9 °F 31.1 °F 91% 30.16 in 10.0 mi North 9.2 mph - N/A   Overcast
4:55 AM 33.4 °F 23.9 °F 30.4 °F 89% 30.17 in 7.0 mi NNE 13.8 mph 17.3 mph N/A   Overcast
5:15 AM 32.9 °F 24.1 °F 30.0 °F 89% 30.17 in 5.0 mi NNE 11.5 mph - N/A   Overcast
5:35 AM 32.5 °F 24.2 °F 30.6 °F 92% 30.18 in 4.0 mi NNE 10.4 mph - N/A   Overcast
5:55 AM 32.4 °F 24.0 °F 30.7 °F 94% 30.18 in 5.0 mi NNE 10.4 mph - N/A   Overcast
6:15 AM 32.0 °F 24.2 °F 30.7 °F 95% 30.18 in 4.0 mi North 9.2 mph - N/A   Overcast
6:35 AM 32.2 °F 23.8 °F 31.1 °F 96% 30.17 in 3.0 mi NNE 10.4 mph - N/A   Overcast
6:55 AM 32.2 °F 23.8 °F 31.5 °F 97% 30.18 in 3.0 mi NE 10.4 mph - N/A   Overcast
7:15 AM 32.0 °F 24.2 °F 31.1 °F 96% 30.18 in 4.0 mi NNE 9.2 mph - N/A   Overcast
7:35 AM 32.2 °F 23.8 °F 31.6 °F 98% 30.18 in 5.0 mi NE 10.4 mph - N/A   Overcast
7:55 AM 32.2 °F 25.0 °F 31.5 °F 97% 30.19 in 7.0 mi NNE 8.1 mph - N/A   Overcast
8:15 AM 32.5 °F 23.7 °F 31.1 °F 94% 30.19 in 10.0 mi NNE 11.5 mph - N/A   Overcast
8:35 AM 32.9 °F 24.7 °F 31.1 °F 93% 30.20 in 10.0 mi NNE 10.4 mph - N/A   Overcast
8:55 AM 32.9 °F 24.7 °F 31.1 °F 93% 30.21 in 10.0 mi NNE 10.4 mph - N/A   Overcast
9:15 AM 33.1 °F 24.9 °F 31.6 °F 94% 30.22 in 3.0 mi NNE 10.4 mph - N/A   Overcast
9:35 AM 33.1 °F 24.4 °F 32.0 °F 96% 30.22 in 2.0 mi NNE 11.5 mph - N/A   Overcast
9:55 AM 33.1 °F 23.9 °F 32.0 °F 96% 30.22 in 1.8 mi NNE 12.7 mph - N/A   Overcast
10:15 AM 32.9 °F 23.2 °F 32.0 °F 96% 30.22 in 2.5 mi NNE 13.8 mph - N/A   Overcast
10:35 AM 33.1 °F 24.4 °F 32.0 °F 96% 30.23 in 2.5 mi NNE 11.5 mph - N/A   Overcast
10:55 AM 33.3 °F 24.6 °F 32.0 °F 95% 30.23 in 3.0 mi NNE 11.5 mph - N/A   Overcast
11:15 AM 33.3 °F 25.1 °F 32.0 °F 95% 30.24 in 4.0 mi NNE 10.4 mph - N/A   Overcast
11:35 AM 32.9 °F 23.7 °F 31.8 °F 96% 30.23 in 3.0 mi NE 12.7 mph - N/A   Overcast
11:55 AM 33.4 °F 23.5 °F 32.0 °F 94% 30.22 in 4.0 mi NE 15.0 mph 19.6 mph N/A   Overcast
12:15 PM 34.0 °F 24.2 °F 31.8 °F 92% 30.22 in 10.0 mi NE 15.0 mph - N/A   Overcast
12:35 PM 34.7 °F 25.5 °F 32.0 °F 90% 30.22 in 10.0 mi NE 13.8 mph - N/A   Overcast
12:55 PM 35.1 °F 25.5 °F 32.4 °F 90% 30.22 in 10.0 mi NE 15.0 mph - N/A   Overcast
1:15 PM 35.1 °F 25.9 °F 32.0 °F 89% 30.22 in 10.0 mi NE 13.8 mph 18.4 mph N/A   Overcast
1:35 PM 34.9 °F 25.7 °F 32.2 °F 90% 30.21 in 5.0 mi NE 13.8 mph - N/A   Overcast
1:55 PM 35.4 °F 25.6 °F 32.4 °F 89% 30.21 in 7.0 mi NE 16.1 mph - N/A   Overcast
2:15 PM 36.1 °F 27.3 °F 33.1 °F 89% 30.21 in 7.0 mi NE 13.8 mph 18.4 mph N/A   Overcast
2:35 PM 35.6 °F 25.9 °F 32.0 °F 87% 30.20 in 10.0 mi NE 16.1 mph - N/A   Overcast
2:55 PM 35.8 °F 26.9 °F 32.2 °F 87% 30.19 in 10.0 mi NE 13.8 mph 19.6 mph N/A   Overcast
3:15 PM 35.8 °F 27.8 °F 32.7 °F 89% 30.19 in 10.0 mi ENE 11.5 mph - N/A   Overcast
3:35 PM 35.4 °F 26.0 °F 32.4 °F 89% 30.19 in 10.0 mi NE 15.0 mph - N/A   Overcast
3:55 PM 36.0 °F 27.5 °F 32.2 °F 86% 30.19 in 10.0 mi NNE 12.7 mph - N/A   Overcast
4:15 PM 35.2 °F 28.1 °F 32.2 °F 89% 30.19 in 10.0 mi NE 9.2 mph - N/A   Overcast
4:35 PM 35.2 °F 28.1 °F 31.8 °F 87% 30.19 in 10.0 mi ENE 9.2 mph - N/A   Overcast
4:55 PM 34.7 °F 28.1 °F 31.8 °F 89% 30.19 in 10.0 mi ENE 8.1 mph - N/A   Overcast
5:15 PM 34.9 °F 27.1 °F 31.6 °F 88% 30.18 in 10.0 mi ENE 10.4 mph - N/A   Overcast
5:35 PM 34.7 °F 26.9 °F 31.3 °F 87% 30.18 in 10.0 mi NE 10.4 mph - N/A   Overcast
5:55 PM 34.7 °F 26.9 °F 31.1 °F 87% 30.18 in 10.0 mi NE 10.4 mph - N/A   Overcast
6:15 PM 34.3 °F 25.9 °F 31.3 °F 89% 30.17 in 10.0 mi NE 11.5 mph - N/A   Overcast
6:35 PM 34.3 °F 27.0 °F 31.1 °F 88% 30.17 in 10.0 mi ENE 9.2 mph - N/A   Overcast
6:55 PM 34.2 °F 26.2 °F 30.9 °F 88% 30.18 in 10.0 mi ENE 10.4 mph - N/A   Overcast
7:15 PM 34.0 °F 26.6 °F 31.1 °F 89% 30.18 in 10.0 mi NE 9.2 mph - N/A   Overcast
7:35 PM 33.8 °F 25.8 °F 31.5 °F 91% 30.19 in 10.0 mi NE 10.4 mph - N/A   Overcast
7:55 PM 33.8 °F 27.0 °F 31.5 °F 91% 30.19 in 10.0 mi NE 8.1 mph - N/A   Overcast
8:15 PM 33.8 °F 27.7 °F 31.6 °F 92% 30.19 in 10.0 mi NE 6.9 mph - N/A   Overcast
8:35 PM 33.8 °F 27.7 °F 32.0 °F 93% 30.19 in 10.0 mi NE 6.9 mph - N/A   Overcast
8:55 PM 33.8 °F 27.0 °F 32.0 °F 93% 30.19 in 10.0 mi NE 8.1 mph - N/A   Overcast
9:15 PM 33.4 °F 27.3 °F 32.0 °F 94% 30.19 in 10.0 mi ENE 6.9 mph - N/A   Overcast
9:35 PM 33.3 °F 27.1 °F 32.0 °F 95% 30.21 in 10.0 mi NE 6.9 mph - N/A   Overcast
9:55 PM 33.4 °F 27.3 °F 32.0 °F 94% 30.21 in 10.0 mi ENE 6.9 mph - N/A   Overcast
10:15 PM 33.4 °F 27.3 °F 32.0 °F 94% 30.21 in 10.0 mi ENE 6.9 mph - N/A   Overcast
10:35 PM 33.8 °F 28.6 °F 32.0 °F 93% 30.21 in 10.0 mi ENE 5.8 mph - N/A   Overcast
10:55 PM 33.4 °F 30.4 °F 32.0 °F 94% 30.22 in 10.0 mi NE 3.5 mph - N/A   Overcast
11:15 PM 33.8 °F 30.8 °F 32.0 °F 93% 30.22 in 10.0 mi North 3.5 mph - N/A   Overcast
11:35 PM 33.8 °F 30.8 °F 32.0 °F 93% 30.22 in 10.0 mi North 3.5 mph - N/A   Overcast
11:55 PM 33.8 °F 29.6 °F 32.0 °F 93% 30.21 in 10.0 mi North 4.6 mph - N/A   Overcast